Houston, TX

7:20 AM CST on December 11, 2016 (GMT -0600)
Ellington

Weather History for KEFD - September, 2012

Change the Weather History Date:

Thursday, September 13, 2012

  Actual Average Record
Temperature  
Mean Temperature 82 °F -  
Max Temperature 89 °F 87 °F 98 °F (2011)
Min Temperature 75 °F 71 °F 66 °F (2015)
Cooling Degree Days 17    
Growing Degree Days 32 (Base 50)    
Moisture  
Dew Point 73 °F    
Average Humidity 81    
Maximum Humidity 94    
Minimum Humidity 62    
Precipitation  
Precipitation 0.00 in - - ()
Sea Level Pressure  
Sea Level Pressure 30.09 in    
Wind  
Wind Speed 2 mph (ENE)    
Max Wind Speed 14 mph    
Max Gust Speed -    
Visibility 9 miles    
Events Thunderstorm    
Averages and records for this station are not official NWS values.
T = Trace of Precipitation, MM = Missing Value Source: NWS Daily Summary

Daily Weather History Graph

Daily Weather History Graph

Search for Another Location

Airport or City:

Trip Planner

Search our weather history database for the weather conditions in past years. The results will help you decide how hot, cold, wet, or windy it might be!

Date:

Astronomy

Sep. 13, 2012 Rise Set
Actual Time 7:04 AM CDT 7:27 PM CDT
Civil Twilight 6:40 AM CDT 7:51 PM CDT
Nautical Twilight 6:12 AM CDT 8:19 PM CDT
Astronomical Twilight 5:44 AM CDT 8:47 PM CDT
Moon 4:33 AM CDT (9/13) 5:45 PM CDT (9/13)
Length of Visible Light 13h 10m
Length of Day
12h 23m
Waning Crescent, 7% of the Moon is Illuminated
Sep 13
Waning Crescent
Sep 15
New
Sep 22
First Quarter
Sep 29
Full
Oct 8
Last Quarter

Hourly Weather History & Observations

Time (CDT) Temp. Heat Index Dew Point Humidity Pressure Visibility Wind Dir Wind Speed Gust Speed Precip Events Conditions
12:50 AM 77.0 °F - 69.8 °F 78% 30.06 in 10.0 mi Calm Calm - N/A   Partly Cloudy
1:50 AM 77.0 °F - 69.8 °F 78% 30.05 in 10.0 mi Calm Calm - N/A   Partly Cloudy
2:50 AM 77.0 °F - 69.8 °F 78% 30.03 in 10.0 mi Calm Calm - N/A   Clear
3:50 AM 77.0 °F - 69.8 °F 78% 30.03 in 10.0 mi Calm Calm - N/A   Partly Cloudy
4:50 AM 77.0 °F - 69.8 °F 78% 30.04 in 10.0 mi Calm Calm - N/A   Scattered Clouds
5:50 AM 77.0 °F - 73.4 °F 89% 30.04 in 10.0 mi Calm Calm - N/A   Mostly Cloudy
6:50 AM 75.2 °F - 73.4 °F 94% 30.07 in 10.0 mi NNE 3.5 mph - N/A   Mostly Cloudy
7:50 AM 75.2 °F - 73.4 °F 94% 30.08 in 10.0 mi NNE 3.5 mph - N/A   Mostly Cloudy
8:50 AM 78.8 °F - 77.0 °F 94% 30.09 in 10.0 mi East 4.6 mph - N/A   Mostly Cloudy
9:50 AM 78.8 °F - 73.4 °F 83% 30.12 in 5.0 mi SSW 8.1 mph - N/A Thunderstorm Thunderstorm
10:50 AM 80.6 °F 86.2 °F 75.2 °F 84% 30.12 in 7.0 mi Calm Calm - N/A   Mostly Cloudy
11:50 AM 86.0 °F 95.1 °F 75.2 °F 70% 30.12 in 10.0 mi SSE 8.1 mph - N/A   Mostly Cloudy
12:50 PM 87.8 °F 95.6 °F 73.4 °F 62% 30.10 in 7.0 mi South 13.8 mph - N/A   Mostly Cloudy
1:50 PM 89.6 °F 99.8 °F 75.2 °F 62% 30.10 in 8.0 mi East 5.8 mph - N/A   Mostly Cloudy
2:50 PM 87.8 °F 97.6 °F 75.2 °F 66% 30.06 in 8.0 mi NE 5.8 mph - N/A   Mostly Cloudy
3:50 PM 86.0 °F 95.1 °F 75.2 °F 70% 30.06 in 10.0 mi East 9.2 mph - N/A   Mostly Cloudy
8:50 PM 77.0 °F - 73.4 °F 89% 30.12 in 10.0 mi NE 3.5 mph - N/A   Scattered Clouds
9:50 PM 77.0 °F - 73.4 °F 89% 30.14 in 10.0 mi NNE 4.6 mph - N/A   Mostly Cloudy
10:50 PM 77.0 °F - 73.4 °F 89% 30.14 in 10.0 mi Calm Calm - N/A   Mostly Cloudy
11:50 PM 75.2 °F - 73.4 °F 94% 30.13 in 10.0 mi Calm Calm - N/A   Mostly Cloudy